Tracking 18844 objects as of 21-Nov-2017
HD Live streaming from Space Station
objects crossing your sky now

GALAXY 11

Track GALAXY 11 now!
GALAXY 11 is classified as:


NORAD ID: 26038
Int'l Code: 1999-071A
Perigee: 35,791.4 km
Apogee: 35,796.2 km
Inclination: 0.1 °
Period: 1,436.1 minutes
Semi major axis: 42164 km
RCS: 25.1188 m2 (large)
Launch date: December 22, 1999
Source: United States (US)
Launch site: FRENCH GUIANA (FRGUI)

Voice and video communications; 24 C-band, 40 Ku-band; North America, Brazil.
aabbcc
Your satellite tracking list
Your tracking list is empty




NASA's NSSDC Master Catalog

Two Line Element Set (TLE):
1 26038U 99071A   17324.93379255 +.00000140 +00000-0 +00000-0 0  9990
2 26038 000.0743 090.6916 0000565 258.0645 092.4712 01.00271566065714
Source of the keplerian elements: AFSPC